Telluride, CO

5:32 PM MDT on June 18, 2018 (GMT -0600)
Telluride Regional

Weather History for KTEX - October, 2017

Change the Weather History Date:

Sunday, October 15, 2017

  Actual Average Record
Temperature  
Mean Temperature 47 °F -  
Max Temperature 62 °F 51 °F 68 °F (2014)
Min Temperature 32 °F 32 °F 26 °F (2013)
Degree Days  
Heating Degree Days 18    
Moisture  
Dew Point -1 °F    
Average Humidity 14    
Maximum Humidity 22    
Minimum Humidity 6    
Precipitation  
Precipitation 0.00 in - - ()
Sea Level Pressure  
Sea Level Pressure 30.61 in    
Wind  
Wind Speed 7 mph (South)    
Max Wind Speed 14 mph    
Max Gust Speed -    
Visibility 10 miles    
Events      
Averages and records for this station are not official NWS values.
T = Trace of Precipitation, MM = Missing Value Source: NWS Daily Summary

Daily Weather History Graph

Daily Weather History Graph

Search for Another Location

Airport or City:

Astronomy

Oct. 15, 2017 Rise Set
Actual Time 7:20 AM MDT 6:33 PM MDT
Civil Twilight 6:53 AM MDT 7:00 PM MDT
Nautical Twilight 6:23 AM MDT 7:30 PM MDT
Astronomical Twilight 5:52 AM MDT 8:00 PM MDT
Moon 2:59 AM MDT (10/15) 4:39 PM MDT (10/15)
Length of Visible Light 12h 06m
Length of Day
11h 13m
Waning Crescent, 17% of the Moon is Illuminated
Oct 15
Waning Crescent
Oct 19
New
Oct 27
First Quarter
Nov 3
Full
Nov 10
Last Quarter

Hourly Weather History & Observations

Time (MDT) Temp. Windchill Dew Point Humidity Pressure Visibility Wind Dir Wind Speed Gust Speed Precip Events Conditions
7:15 AM 32.0 °F 24.8 °F -6.7 °F 19% 30.59 in 10.0 mi SE 8.1 mph - N/A   Clear
9:15 AM 41.2 °F - -4.0 °F 15% 30.63 in 10.0 mi Calm Calm - N/A   Clear
12:55 PM - - - N/A% 30.61 in 10.0 mi West 9.2 mph - N/A   Clear
1:15 PM 60.3 °F - -5.8 °F 7% 30.61 in 10.0 mi West 9.2 mph - N/A   Clear
1:35 PM 60.8 °F - -6.5 °F 6% 30.60 in 10.0 mi West 10.4 mph - N/A   Clear
1:55 PM 61.3 °F - -6.2 °F 6% 30.59 in 10.0 mi West 10.4 mph - N/A   Clear
2:15 PM 62.1 °F - -4.5 °F 7% 30.59 in 10.0 mi West 9.2 mph - N/A   Clear
2:35 PM 61.9 °F - -3.8 °F 7% 30.59 in 10.0 mi West 11.5 mph - N/A   Clear
5:35 PM 57.7 °F - -4.7 °F 8% 30.59 in 10.0 mi West 13.8 mph - N/A   Clear
6:35 PM 52.9 °F - -0.4 °F 11% 30.59 in 10.0 mi West 6.9 mph - N/A   Clear
6:55 PM 51.6 °F - -0.9 °F 12% 30.60 in 10.0 mi Calm Calm - N/A   Clear
7:15 PM 50.0 °F - -0.8 °F 12% 30.61 in 10.0 mi Calm Calm - N/A   Clear
7:35 PM 48.6 °F - 1.4 °F 14% 30.61 in 10.0 mi ESE 5.8 mph - N/A   Clear
7:55 PM 47.5 °F - 1.6 °F 15% 30.62 in 10.0 mi SE 5.8 mph - N/A   Clear
8:15 PM 45.1 °F 41.4 °F 3.6 °F 18% 30.63 in 10.0 mi SE 6.9 mph - N/A   Clear
8:55 PM 43.7 °F 39.1 °F 5.2 °F 20% 30.63 in 10.0 mi SSE 8.1 mph - N/A   Clear
9:15 PM 43.5 °F 40.1 °F 5.0 °F 20% 30.63 in 10.0 mi SE 5.8 mph - N/A   Clear
9:35 PM 42.8 °F 38.0 °F 4.8 °F 21% 30.64 in 10.0 mi SE 8.1 mph - N/A   Clear
10:35 PM 41.0 °F 35.8 °F 4.8 °F 22% 30.64 in 10.0 mi SE 8.1 mph - N/A   Clear
10:55 PM - - - N/A% 30.64 in 10.0 mi SE 9.2 mph - N/A   Clear
11:15 PM 41.4 °F 37.6 °F 4.1 °F 21% 30.64 in 10.0 mi SSE 5.8 mph - N/A   Clear